DMSP 5D-2 F13 DEB, 42285

Orbit data source: Space-Track

DMSP 5D-2 F13 DEB, 42285 is space debris in SSO originally from a launch on Fri, 24 Mar 1995 UTC launched from the Air Force Western Test Range (AFWTR). Debris objects in space refer to the collection of defunct objects orbiting the Earth. Examples of debris include non-operational satellites, rocket bodies, and fragments generated from explosions, collisions, or faulty payload assembly.

Loading next visibility...
Identifier
42285, 1995-015HB
Orbit
SSO
Country
Flag of USUS
Related business
Manufacturer
Unknown
Mission
Spacecraft
Bus & Motor
Unknown
Mass
Unknown
Launch date (UTC)
1995-03-24 (31 years ago)
Launch vehicle
Unknown
Launch site
Air Force Western Test Range (AFWTR)
Object type
Payload
Rocket body
Debris
Shape & HBR
Unknown shape, 0.1 m
Radar Cross Section
Small (<0.1 m²)

Expand to show TLE details & history
Last TLE update: 21 hours ago

TLE from 21 hours ago
0 DMSP 5D-2 F13 DEB
1 42285U 95015HB  25288.52954507  .00004781  00000-0  20471-2 0  9999
2 42285  98.9207 311.4340 0031197  19.1926 341.0420 14.25089578532983
Epoch: 2025-10-15T12:42Z
TLE epoch observation values (Epoch: 2025-10-15T12:42:32.694Z)
Latitude
-0.00003°
Longitude
96.49547°
Altitude
789.906 km
Speed
7.47 km/s
True Right ascension
20h 45m 44s
True Declination
0° 00' 00"
Sunlit
Object was in daylight at epoch
Visualization orbit readout
Latitude
Unknown
Longitude
Unknown
Altitude
Unknown
Speed
Unknown
Apparent Right ascension
Unknown
Apparent Declination
Unknown
Sunlit
N/A
Visualization observer readout
Local Sidereal Time
04:27:31
Azimuth
Unknown
Elevation
Unknown
Doppler factor
Unknown
Orbital elements
Apogee altitude
827.764 km
Perigee altitude
782.943 km
Semi-major axis
7,183.49 km
Eccentricity
0.00312
Inclination
98.9207°
RAAN
311.434°
Arg. of periapsis
19.1926°
True anomaly
340.92543°
Mean anomaly
341.042°
Eccentric anomaly
340.98376°
Mean motion
3.56484 °/min
Orbital period
100.99 mins
BSTAR
0.0020471

Documentation

Showing up to 5 results
|